Location: Godiavel Galaoual
(15.2485°N, 12.6604°W)
Time: 01:07:58
(UTC+00:00)

Explorer 7 - Pass Details

Date: 20 June 2021
Orbit: 484 x 676 km, 50.3° (Epoch: 29 July)

Event Time Altitude Azimuth Distance (km) Brightness Sun altitude
Rises 18:47:24 0° 207° (SSW) 2,911 10.6 7.1°
Reaches altitude 10° 18:49:44 10° 201° (SSW) 2,030 9.7 6.6°
Maximum altitude 18:54:16 49° 127° (SE) 853 7.5 5.6°
Drops below altitude 10° 18:58:57 10° 52° (NE) 2,096 9.5 4.5°
Sets 19:01:24 0° 47° (NE) 3,016 10.3 4.0°
